TimeCST,TemperatureF,Dew PointF,Humidity,Sea Level PressureIn,VisibilityMPH,Wind Direction,Wind SpeedMPH,Gust SpeedMPH,PrecipitationIn,Events,Conditions,WindDirDegrees,DateUTC
1:53 AM,61.0,55.9,83,30.09,10.0,South,9.2,-,N/A,,Overcast,170,2012-11-27 07:53:00
2:27 AM,60.8,55.4,82,30.09,10.0,South,4.6,-,N/A,,Overcast,180,2012-11-27 08:27:00
2:53 AM,60.1,55.9,86,30.08,10.0,South,5.8,-,N/A,,Mostly Cloudy,180,2012-11-27 08:53:00
3:53 AM,59.0,55.9,90,30.11,10.0,WNW,16.1,24.2,N/A,,Overcast,300,2012-11-27 09:53:00
4:01 AM,60.8,55.4,82,30.10,9.0,NW,5.8,24.2,0.00,Rain-Thunderstorm,Light Rain,320,2012-11-27 10:01:00
4:08 AM,60.8,55.4,82,30.10,6.0,Calm,Calm,-,0.01,Rain,Light Rain,0,2012-11-27 10:08:00
4:12 AM,59.0,57.2,94,30.10,3.0,NNW,3.5,-,0.03,Rain,Rain,330,2012-11-27 10:12:00
4:16 AM,59.0,57.2,94,30.10,2.5,Calm,Calm,-,0.04,Rain-Thunderstorm,Rain,0,2012-11-27 10:16:00
4:24 AM,59.0,57.2,94,30.11,5.0,Calm,Calm,-,0.05,Rain-Thunderstorm,Light Rain,0,2012-11-27 10:24:00
4:45 AM,57.2,57.2,100,30.11,4.0,Calm,Calm,-,0.08,Rain-Thunderstorm,Rain,0,2012-11-27 10:45:00
4:53 AM,57.9,57.0,97,30.12,3.0,Calm,Calm,-,0.10,Rain,Rain,0,2012-11-27 10:53:00
5:01 AM,57.2,57.2,100,30.13,3.0,SSW,3.5,-,0.02,Rain-Thunderstorm,Light Rain,210,2012-11-27 11:01:00
5:10 AM,57.2,57.2,100,30.13,3.0,South,3.5,-,0.04,Rain,Rain,170,2012-11-27 11:10:00
5:36 AM,57.2,57.2,100,30.13,2.0,Calm,Calm,-,0.16,Rain,Heavy Rain,0,2012-11-27 11:36:00
5:41 AM,57.2,57.2,100,30.13,1.2,Calm,Calm,-,0.18,Rain,Rain,0,2012-11-27 11:41:00
5:45 AM,57.2,57.2,100,30.12,0.8,ESE,3.5,-,0.20,Rain,Rain,110,2012-11-27 11:45:00
5:53 AM,57.9,57.0,97,30.07,1.2,ESE,10.4,-,0.23,Rain,Rain,110,2012-11-27 11:53:00
5:57 AM,57.2,57.2,100,30.04,3.0,ESE,15.0,19.6,0.01,Rain,Rain,120,2012-11-27 11:57:00
6:39 AM,59.0,57.2,94,30.12,8.0,WNW,6.9,-,0.01,,Mostly Cloudy,290,2012-11-27 12:39:00
6:53 AM,59.0,57.9,96,30.12,9.0,West,4.6,-,0.01,,Overcast,280,2012-11-27 12:53:00
7:53 AM,57.0,55.0,93,30.16,10.0,NNW,9.2,-,0.00,,Overcast,330,2012-11-27 13:53:00
8:28 AM,55.4,53.6,94,30.17,10.0,NNW,11.5,-,N/A,,Overcast,340,2012-11-27 14:28:00
8:53 AM,55.9,53.1,90,30.19,10.0,NNW,8.1,-,N/A,,Overcast,340,2012-11-27 14:53:00
9:53 AM,54.0,50.0,86,30.21,10.0,North,15.0,-,N/A,,Overcast,360,2012-11-27 15:53:00
10:53 AM,51.1,48.0,89,30.22,10.0,NNW,11.5,-,N/A,,Overcast,340,2012-11-27 16:53:00
11:53 AM,51.1,46.9,86,30.21,10.0,North,9.2,-,N/A,,Overcast,360,2012-11-27 17:53:00
12:53 PM,52.0,46.0,80,30.21,10.0,North,10.4,-,N/A,,Overcast,350,2012-11-27 18:53:00
1:53 PM,52.0,45.0,77,30.21,10.0,North,9.2,-,N/A,,Overcast,10,2012-11-27 19:53:00
2:53 PM,51.1,45.0,80,30.22,8.0,NNW,9.2,-,N/A,,Overcast,340,2012-11-27 20:53:00
3:53 PM,50.0,43.0,77,30.25,7.0,North,10.4,-,N/A,,Overcast,360,2012-11-27 21:53:00
4:53 PM,48.9,43.0,80,30.26,8.0,North,9.2,-,N/A,,Overcast,350,2012-11-27 22:53:00
5:53 PM,48.9,42.1,77,30.29,9.0,North,11.5,-,N/A,,Overcast,350,2012-11-27 23:53:00
6:53 PM,48.0,41.0,77,30.32,9.0,North,9.2,-,N/A,,Overcast,360,2012-11-28 00:53:00
7:53 PM,48.0,39.9,74,30.32,10.0,North,9.2,-,N/A,,Overcast,360,2012-11-28 01:53:00
8:53 PM,46.9,39.0,74,30.32,10.0,North,10.4,-,N/A,,Overcast,10,2012-11-28 02:53:00
9:53 PM,46.0,37.9,73,30.32,9.0,NE,9.2,-,N/A,,Overcast,40,2012-11-28 03:53:00
10:53 PM,46.0,37.9,73,30.32,9.0,NNE,8.1,-,N/A,,Overcast,30,2012-11-28 04:53:00
11:53 PM,46.0,37.9,73,30.33,8.0,North,8.1,-,N/A,,Overcast,360,2012-11-28 05:53:00